Regional Weather Roundup
Issued by NWS Upton, NY

Current Version | Previous Version | Graphics & Text | Print | Product List | Glossary Off
Versions: 1 2 3 4 5 6 7 8 9 10 11 12 13 14 15 16 17 18 19 20 21 22 23 24 25 26 27 28 29 30 31 32 33 34 35 36 37 38 39 40 41 42 43 44 45 46 47 48 49 50

000
ASUS41 KOKX 030504
RWROKX

REGIONAL WEATHER ROUNDUP
NATIONAL WEATHER SERVICE NEW YORK NY
100 AM EDT MON AUG 03 2015

NOTE: "FAIR" INDICATES FEW OR NO CLOUDS BELOW 12,000 FEET WITH NO
SIGNIFICANT WEATHER AND/OR OBSTRUCTIONS TO VISIBILITY.

NYZ071-072-176-178-NJZ106-104-030600-
NEW YORK CITY METRO AREA


CITY           SKY/WX    TMP DP  RH WIND       PRES   REMARKS
CENTRAL PARK   CLEAR     79  55  43 VRB5      29.90R
LAGUARDIA APRT PTCLDY    81  58  45 S8        29.86R
KENNEDY INTL   PTCLDY    76  61  59 SW9       29.89R
NEWARK/LIBERTY PTCLDY    77  57  50 S6        29.87R
BRNX BOT. GARD   N/A     79  57  47 NE1       29.89R
TETERBORO      CLEAR     75  57  53 S3        29.86R
$$

NYZ177-179-078>081-030600-
LONG ISLAND NEW YORK

CITY           SKY/WX    TMP DP  RH WIND       PRES   REMARKS
FARMINGDALE    CLEAR     76  69  79 SW7       29.88R
ISLIP          CLEAR     75  68  78 SW7       29.86S
SHIRLEY        CLEAR     74  71  91 SW6       29.89R
WESTHAMPTON    CLEAR     75  70  84 SW6       29.90S
MONTAUK POINT    N/A     75  72  90 S7        29.89S
$$

NYZ052-065-067-030600-
HUDSON VALLEY

CITY           SKY/WX    TMP DP  RH WIND       PRES   REMARKS
WHITE PLAINS   CLEAR     68  65  90 CALM      29.87S
NEWBURGH       CLEAR     73  59  60 SW5       29.86F
MONTGOMERY     CLEAR     63  59  87 SW5       29.85F
POUGHKEEPSIE   CLEAR     66  59  78 CALM      29.83F
ALBANY         MOCLDY    73  57  57 S12       29.79F
$$

NJZ001-105-106-008-010-013-015-019>022-104-030600-
NEW JERSEY

CITY           SKY/WX    TMP DP  RH WIND       PRES   REMARKS
NEWARK/LIBERTY PTCLDY    77  57  50 S6        29.87R
TETERBORO      CLEAR     75  57  53 S3        29.86R
CALDWELL       CLEAR     71  57  61 CALM      29.88R
MORRISTOWN     CLEAR     63  57  82 CALM      29.88R
SOMERVILLE     CLEAR     64  58  80 CALM      29.86S
SUSSEX         CLEAR     61  58  90 CALM      29.86F
ANDOVER          N/A     62  61  96 CALM      29.88F
TRENTON        CLEAR     72  59  63 SW5       29.88S
MILLVILLE      PTCLDY    67  64  90 CALM      29.89F
ATLANTIC CITY  PTCLDY    73  66  78 S6        29.89F
WRIGHTSTOWN    PTCLDY    68  63  82 SW3       29.87R
TOMS RIVER       N/A     70  61  73 CALM      29.90S
BELMAR         PTCLDY    72  59  64 SW6       29.90R
$$

PAZ047>061-062-071-030600-
EASTERN PENNSYLVANIA

CITY           SKY/WX    TMP DP  RH WIND       PRES   REMARKS
PHILADELPHIA   PTCLDY    77  63  61 SW7       29.89S
ALLENTOWN      CLEAR     68  60  75 CALM      29.86F
SCRANTON       CLEAR     71  58  63 CALM      29.85F
$$

CTZ002-004>006-009-010-012-RIZ004-006-007-MAZ004-011-015-030600-
SOUTHERN NEW ENGLAND
 IN CT

CITY           SKY/WX    TMP DP  RH WIND       PRES   REMARKS
BRADLEY INTL   CLEAR     71  62  73 S5        29.85S
HARTFORD       CLEAR     72  66  81 S6        29.86R
DANBURY        CLEAR     69  62  78 CALM      29.88S
WTRBRY/OXFORD  CLEAR     70  61  73 CALM      29.90F
BRIDGEPORT     CLEAR     75  69  81 VRB3      29.87S
MERIDEN        CLEAR     67  63  87 CALM      29.87S
NEW HAVEN      CLEAR     68  65  90 CALM      29.88R
CHESTER        FAIR      72  68  88 SW3       29.90S
GROTON         CLEAR     68  66  93 CALM      29.88S FOG
WILLIMANTIC    CLEAR     67  63  87 CALM      29.88S

 IN RI

CITY           SKY/WX    TMP DP  RH WIND       PRES   REMARKS
PROVIDENCE     CLEAR     70  68  93 S7        29.88F
BLOCK ISLAND     N/A     72  72 100 S8        29.89F
WESTERLY       CLEAR     69  68  96 CALM      29.89S

 IN MA

CITY           SKY/WX    TMP DP  RH WIND       PRES   REMARKS
BOSTON         CLEAR     71  65  81 SW10      29.87S
WORCESTER      CLEAR     64  62  93 SW9       29.90R
WESTFIELD      CLEAR     65  59  81 S5        29.85S
PROVINCETOWN   CLEAR     72  61  68 S9        29.88S
NANTUCKET      CLEAR     70  65  84 S9        29.90F
$$

ANZ330-335-338-340-345-350-353-355-030600-
COASTAL MARINE OBSERVATIONS


STATION/POSITION TIME  SKY/WX   TEMP    WIND        PRES    VSBY  WAVE
                                AIR SEA DIR/SP/G                  HT/PER
                 (UTC)          (F)     (DEG/KT/KT) (MB)    (MI)  (FT/S)
NY HARB ENTRANCE 0350            78 78  210/ 14/ 17 1010.9          3/ 7
4S FIRE IS       NOT AVBL
20S FIRE ISLAND  0350            78 76  210/ 14/ 16 1011.3          3/ 7
GREAT SOUTH BAY  0400            78 81  200/ 14/ 16   N/A
23SW MTP         0450            76 75  210/ 10/ 12 1011.3          3/ 8
HUDSON CANYON    NOT AVBL
KINGS POINT      0400            76 70  160/  5/  7 1010.5
EXECUTION ROCKS  0400            74     200/  4/  6   N/A
CENTRAL LI SOUND NOT AVBL
EASTERN LI SOUND 0400            71 69   80/  2/  4   N/A
ROBBINS REEF     0400            81     240/ 10/ 12 1010.1
$$


>>>>>>>>>>>>>>>>>>>>>>>>>>>> KEY <<<<<<<<<<<<<<<<<<<<<<<<<<<
>                                                          <
>     SKY/WX - SKY CONDITION/PRESENT WEATHER               <
>     TMP    - TEMPERATURE IN FAHRENHEIT                   <
>     DP     - DEWPOINT IN FAHRENHEIT                      <
>     RH     - RELATIVE HUMIDITY IN PERCENT                <
>     WIND   - DIRECTION AND SPEED IN MPH                  <
>     PRES   - MEAN SEA LEVEL PRESSURE IN INCHES OF HG     <
>     WCI    - WIND CHILL INDEX                            <
>     VSB    - VISIBILITY IN MILES                         <
>     HX     - HEAT INDEX                                  <
>     TC     - TEMPERATURE IN CELSIUS                      <
>     VRB    - VARIABLE WIND DIRECTION                     <
>                                                          <
>>>>>>>>>>>>>>>>>>>>>>>>>>>> KEY <<<<<<<<<<<<<<<<<<<<<<<<<<<





USA.gov is the U.S. government's official web portal to all federal, state and local government web resources and services.